OE3TEC-15 Weather Reports


time (UTC)temp
F
wind
direction
speed
knots
gust
knots
rain 1hr
in
rain 24hr
in
rain mn
in
humidity
%
barometer
mb
20260508024527 44 217 0.9 1.7 0.00 0.00 0.00 91 1017.4
20260508023520 44 223 0.9 2.6 0.00 0.00 0.00 90 1017.4
20260508022513 44 228 0.9 1.7 0.00 0.00 0.00 91 1017.2
20260508021504 44 225 0.9 1.7 0.00 0.00 0.00 90 1017.4
20260508020456 45 219 0.9 1.7 0.00 0.00 0.00 90 1017.3
20260508015451 45 225 0.9 2.6 0.00 0.00 0.00 90 1017.4
20260508014444 45 223 0.0 1.7 0.00 0.00 0.00 89 1017.2
20260508013437 45 205 0.0 0.0 0.00 0.00 0.00 89 1017.1
20260508012430 45 208 0.0 0.0 0.00 0.00 0.00 88 1017.2
20260508011422 46 214 0.0 1.7 0.00 0.00 0.00 88 1017.0
20260508010415 46 225 0.9 3.5 0.00 0.00 0.00 87 1016.9
20260508005407 46 210 0.0 1.7 0.00 0.00 0.00 87 1016.9
20260508004400 47 213 0.0 1.7 0.00 0.00 0.00 86 1016.9
20260508003353 47 209 0.0 0.9 0.00 0.00 0.00 84 1016.8
20260508002345 48 208 0.0 0.0 0.00 0.00 0.00 83 1016.8
20260508001337 50 198 0.0 0.0 0.00 0.00 0.00 81 1016.9
20260508000334 51 201 0.0 0.0 0.00 0.00 0.00 78 1016.7
20260507235324 52 207 0.0 0.9 0.00 0.00 0.00 75 1016.8
20260507234317 54 229 1.7 3.5 0.00 0.00 0.00 73 1017.0
20260507233310 55 244 3.5 6.1 0.00 0.00 0.00 70 1017.2
20260507232305 56 242 4.3 7.0 0.00 0.00 0.00 70 1016.9
20260507231255 56 242 4.3 7.0 0.00 0.00 0.00 69 1016.9
20260507230248 56 242 4.3 6.1 0.00 0.00 0.00 68 1017.1
20260507225240 57 246 4.3 7.0 0.00 0.00 0.00 68 1016.9
20260507224233 57 244 5.2 7.0 0.00 0.00 0.00 68 1016.8
20260507223225 57 245 5.2 7.8 0.00 0.00 0.00 68 1016.7
20260507222218 57 241 5.2 7.8 0.00 0.00 0.00 69 1016.6
20260507221212 57 246 5.2 7.0 0.00 0.00 0.00 69 1016.5
20260507220204 56 241 4.3 7.0 0.00 0.00 0.00 71 1016.5
20260507215157 55 243 3.5 6.1 0.00 0.00 0.07 77 1016.6
20260507214149 55 241 3.5 5.2 0.00 0.00 0.07 76 1016.3
20260507213142 56 243 3.5 5.2 0.00 0.00 0.07 73 1016.1
20260507212135 56 239 3.5 5.2 0.00 0.00 0.07 73 1016.2
20260507211127 57 241 3.5 5.2 0.00 0.00 0.07 73 1016.0
20260507210120 56 241 3.5 5.2 0.00 0.00 0.07 73 1015.8
20260507205112 56 239 2.6 5.2 0.00 0.00 0.07 74 1016.1
20260507204105 57 233 1.7 2.6 0.00 0.00 0.07 73 1015.8
20260507203058 57 232 1.7 3.5 0.00 0.00 0.07 71 1015.8
20260507202052 58 237 2.6 5.2 0.00 0.00 0.07 69 1015.7
20260507201045 58 240 3.5 5.2 0.00 0.00 0.07 68 1015.5
20260507200037 59 247 3.5 6.1 0.00 0.00 0.07 67 1015.8
20260507195029 58 242 2.6 3.5 0.00 0.00 0.07 68 1015.4
20260507194023 59 249 3.5 6.1 0.00 0.00 0.07 67 1015.2
20260507193015 59 245 3.5 6.1 0.00 0.00 0.07 69 1015.2
20260507192007 59 245 4.3 6.1 0.00 0.00 0.07 68 1015.0
20260507191000 57 235 2.6 5.2 0.00 0.00 0.07 76 1015.4
20260507185953 56 231 1.7 1.7 0.00 0.00 0.07 88 1015.3
20260507184945 56 213 0.0 0.9 0.00 0.00 0.07 89 1014.8
20260507183938 57 222 0.9 1.7 0.00 0.00 0.07 87 1014.9
20260507182932 57 210 0.0 1.7 0.00 0.00 0.07 86 1014.6
20260507181925 57 222 0.9 2.6 0.00 0.00 0.07 86 1014.4
20260507180917 57 213 0.0 1.7 0.00 0.00 0.07 86 1014.3
20260507175909 58 206 0.0 0.9 0.00 0.00 0.07 86 1014.0
20260507174902 58 210 0.0 1.7 0.00 0.00 0.07 85 1013.9
20260507173855 59 206 0.0 1.7 0.00 0.00 0.07 84 1013.9
20260507172849 59 208 0.0 0.9 0.01 0.00 0.07 83 1013.6
20260507171841 59 209 0.0 1.7 0.01 0.00 0.07 79 1013.5
20260507170833 59 143 0.9 2.6 0.03 0.00 0.07 77 1013.4
20260507165826 59 123 1.7 3.5 0.07 0.00 0.07 76 1013.2
20260507164819 60 150 0.9 2.6 0.07 0.00 0.07 72 1013.2
20260507163813 59 110 1.7 3.5 0.07 0.00 0.07 73 1013.0
20260507162806 61 133 0.9 6.1 0.06 0.00 0.06 69 1013.0
20260507161757 63 134 1.7 6.1 0.06 0.00 0.06 63 1013.1
20260507160749 64 119 0.9 3.5 0.03 0.00 0.03 59 1013.1
20260507155743 66 130 0.9 3.5 0.00 0.00 0.00 52 1013.0
20260507154736 68 144 1.7 5.2 0.00 0.00 0.00 46 1012.7
20260507153729 68 135 0.9 3.5 0.00 0.00 0.00 43 1012.6
20260507152721 69 139 0.9 3.5 0.00 0.00 0.00 42 1012.7
20260507151713 70 153 0.9 1.7 0.00 0.00 0.00 42 1012.6
20260507150706 70 199 0.9 3.5 0.00 0.00 0.00 39 1012.7
20260507145659 70 222 1.7 3.5 0.00 0.00 0.00 38 1012.6
20260507144653 70 229 2.6 5.2 0.00 0.00 0.00 38 1012.5
20260507143652 70 204 0.9 2.6 0.00 0.00 0.00 37 1012.5
20260507142646 70 228 2.6 5.2 0.00 0.00 0.00 36 1012.4
20260507141639 71 236 4.3 9.6 0.00 0.00 0.00 38 1012.5
20260507140633 72 245 5.2 11.3 0.00 0.00 0.00 35 1012.4
20260507135625 71 246 7.0 11.3 0.00 0.00 0.00 35 1012.4
20260507134617 73 242 7.0 11.3 0.00 0.00 0.00 34 1012.4
20260507133610 76 211 0.9 8.7 0.00 0.00 0.00 32 1012.3
20260507132605 73 244 5.2 11.3 0.00 0.00 0.00 35 1012.6
20260507131557 73 241 5.2 13.0 0.00 0.00 0.00 35 1012.6
20260507130549 72 215 1.7 5.2 0.00 0.00 0.00 35 1012.7
20260507125542 73 209 0.9 7.0 0.00 0.00 0.00 36 1012.7
20260507124535 72 225 1.7 7.0 0.00 0.00 0.00 37 1012.9
20260507123528 71 236 3.5 7.8 0.00 0.00 0.00 40 1013.1
20260507122520 70 233 3.5 8.7 0.00 0.00 0.00 41 1013.1
20260507121512 71 241 4.3 8.7 0.00 0.00 0.00 40 1013.0
20260507120504 74 189 0.9 6.1 0.00 0.00 0.00 38 1013.1
20260507115458 69 222 1.7 7.8 0.00 0.00 0.00 42 1013.2
20260507114450 70 231 4.3 9.6 0.00 0.00 0.00 44 1013.5
20260507113443 69 227 3.5 9.6 0.00 0.00 0.00 43 1013.3
20260507112437 69 208 1.7 7.8 0.00 0.00 0.00 43 1013.3
20260507111428 69 246 6.1 11.3 0.00 0.00 0.00 44 1013.9
20260507110422 68 226 3.5 11.3 0.00 0.00 0.00 44 1013.7
20260507105415 68 227 3.5 8.7 0.00 0.00 0.00 44 1013.7
20260507104407 68 231 4.3 9.6 0.00 0.00 0.00 43 1013.9
20260507103400 68 233 6.1 12.2 0.00 0.00 0.00 45 1013.9
20260507102353 68 240 5.2 13.0 0.00 0.00 0.00 45 1013.9
20260507101345 68 234 3.5 8.7 0.00 0.00 0.00 44 1014.0
20260507100338 68 249 6.1 12.2 0.00 0.00 0.00 45 1014.0
20260507095331 66 239 6.1 11.3 0.00 0.00 0.00 44 1014.0
20260507094325 66 244 7.0 12.2 0.00 0.00 0.00 48 1013.9
20260507093317 67 243 5.2 12.2 0.00 0.00 0.00 48 1013.9
20260507092310 66 247 5.2 12.2 0.00 0.00 0.00 49 1013.9
20260507091301 64 247 6.1 11.3 0.00 0.00 0.00 50 1013.7
20260507090255 64 246 7.0 12.2 0.00 0.00 0.00 51 1013.9
20260507085248 64 244 6.1 9.6 0.00 0.00 0.00 52 1013.5
20260507084241 63 248 6.1 11.3 0.00 0.00 0.00 52 1013.6
20260507083241 62 241 5.2 11.3 0.00 0.00 0.00 54 1013.5
20260507082234 62 241 4.3 8.7 0.00 0.00 0.00 56 1013.4
20260507081227 62 239 4.3 7.8 0.00 0.00 0.00 55 1013.4
20260507080221 62 247 7.0 12.2 0.00 0.00 0.00 56 1013.5
20260507075214 62 249 7.0 11.3 0.00 0.00 0.00 55 1013.3
20260507074207 62 245 6.1 9.6 0.00 0.00 0.00 57 1013.1
20260507073158 61 248 7.8 12.2 0.00 0.00 0.00 59 1013.2
20260507072151 61 243 6.1 12.2 0.00 0.00 0.00 59 1013.3
20260507071151 61 251 5.2 11.3 0.00 0.00 0.00 59 1013.2
20260507070146 60 241 5.2 8.7 0.00 0.00 0.00 61 1013.3
20260507065138 59 245 7.0 13.9 0.00 0.00 0.00 63 1013.4
20260507064131 59 248 7.8 13.0 0.00 0.00 0.00 63 1013.2
20260507063125 58 246 7.0 13.0 0.00 0.00 0.00 64 1013.2
20260507062117 58 241 5.2 13.0 0.00 0.00 0.00 66 1013.0
20260507061111 57 243 4.3 7.8 0.00 0.00 0.00 68 1012.9
20260507060103 57 242 4.3 7.8 0.00 0.00 0.00 69 1013.0
20260507055055 57 233 3.5 6.1 0.00 0.00 0.00 69 1012.8
20260507054048 57 247 4.3 7.8 0.00 0.00 0.00 69 1012.5
20260507053041 57 244 3.5 7.0 0.00 0.00 0.00 69 1012.4
20260507052033 57 243 3.5 6.1 0.00 0.00 0.00 70 1012.5
20260507051026 57 240 3.5 7.0 0.00 0.00 0.00 71 1012.3
20260507050018 56 241 3.5 7.0 0.00 0.00 0.00 71 1012.4
20260507045011 56 241 4.3 9.6 0.00 0.00 0.00 72 1012.1
20260507044005 56 236 3.5 7.0 0.00 0.00 0.00 72 1012.1
20260507042958 56 239 3.5 7.8 0.00 0.00 0.00 72 1011.9
20260507041951 55 244 5.2 11.3 0.00 0.00 0.00 73 1011.8
20260507040942 55 241 5.2 7.8 0.00 0.00 0.00 73 1011.4
20260507035935 55 241 3.5 6.1 0.00 0.00 0.00 73 1011.4
20260507034928 55 238 3.5 6.1 0.00 0.00 0.00 73 1011.3
20260507033921 56 247 4.3 7.8 0.00 0.00 0.00 72 1011.4
20260507032913 56 243 6.1 9.6 0.00 0.00 0.00 72 1011.2
20260507031906 56 241 5.2 9.6 0.00 0.00 0.00 72 1011.3
20260507030857 57 242 5.2 8.7 0.00 0.00 0.00 71 1011.1
20260507025851 57 240 4.3 7.0 0.00 0.00 0.00 71 1010.9